Погода в Стретенке

Россия / Приморский край     45°49′41″N   134°03′03″E
темп.,
°C
ветер,
м/с
пор.,
м/с
влажн.,
%
обл.,
%
осадки,
мм/ч
давл.,
гПа
погр.,
м
25 июня, пт
пт2501:00+16ю229791 2.0 100846
04:00+15ююз27975 2.0 1009170
07:00+16ююз28955 0.0 1009272
10:00+23юз465613 0.0 1008661
13:00+25зюз465380 0.0 1007850
16:00+26зюз57505 0.0 1007811
19:00+24юз49634 0.0 1006440
22:00+22юз4127413 0.0 1007415
26 июня, сб
сб2601:00+20юз5137129 0.0 1008385
04:00+19юз413615 0.1 1009386
07:00+19юз28695 0.0 1010293
10:00+25юз35465 0.0 1010764
13:00+28з34395 0.0 10101311
16:00+29з44420 0.0 10081493
19:00+25з36640 0.0 1008510
22:00+18ю22920 0.0 101015
27 июня, вс
вс2701:00+18юз310720 0.0 1010265
04:00+15ю1175100 0.0 101114
07:00+17ю1274100 0.0 101180
10:00+24ссз1156100 0.0 1011679
13:00+27сз2350100 0.0 10091244
16:00+27сз435299 0.0 1008846
19:00+24сз236480 0.0 1007486
22:00+18юз1188100 0.4 100811
28 июня, пн
пн2801:00+17ююз119399 0.4 100811
04:00+16з01946 0.4 100811
07:00+17ююз00915 0.1 100843
10:00+24с115521 0.1 1008558
13:00+28ссз224682 0.0 10071114
16:00+28ссз43495 0.0 1005952
19:00+23ю3776100 0.2 1005206
22:00+18ююв228097 0.2 100618
29 июня, вт
вт2901:00+17ю22840 0.1 100719
04:00+16ююз27935 0.1 1007155
07:00+17ю258033 0.0 1008170
10:00+25юз2442100 0.0 1008776
13:00+27зсз3342100 0.0 10071333
16:00+28сз3346100 0.0 10061185
19:00+24зсз2471100 0.0 1006161
22:00+19в1192100 1.8 100811